Regional Weather Roundup
Issued by NWS

Home | Current Version | Previous Version | Graphics & Text | Print | Product List | Glossary On
Versions: 1 2 3 4 5 6 7 8 9 10 11 12 13 14 15 16 17 18 19 20 21 22 23 24 25 26 27 28 29 30 31 32 33 34 35 36 37 38 39 40 41 42 43 44 45 46 47 48 49 50
000
ASUS43 KBIS 241210
RWRND

NORTH DAKOTA REGIONAL WEATHER ROUNDUP
NATIONAL WEATHER SERVICE BISMARCK ND
700 AM CDT MON JUL 24 2017

NOTE: "FAIR" INDICATES FEW OR NO CLOUDS BELOW 12,000 FEET WITH NO
SIGNIFICANT WEATHER AND/OR OBSTRUCTIONS TO VISIBILITY.


NDZ001>003-009>011-017-241300-
NORTHWEST NORTH DAKOTA

CITY           SKY/WX    TMP DP  RH WIND       PRES   REMARKS
WILLISTON      CLOUDY    73  54  51 S8        29.76F
6HR MIN TEMP:  72; 6HR MAX TEMP:  77;

MINOT          CLEAR     70  57  63 S13G21    29.82F
MINOT AFB      CLEAR     67  57  71 S10       29.80F
$$

NDZ018>021-031>035-040>046-241300-
SOUTHWEST NORTH DAKOTA

CITY           SKY/WX    TMP DP  RH WIND       PRES   REMARKS
BISMARCK       CLOUDY    65  61  87 SE8       29.93S
6HR MIN TEMP:  65; 6HR MAX TEMP:  68;

DICKINSON      CLOUDY    67  55  65 SE15G24   29.84F
GARRISON         N/A     66  60  81 S12       29.87F
6HR MIN TEMP:  62; 6HR MAX TEMP:  66;

HETTINGER ARPT CLOUDY    68  55  63 NE13G21   29.85F
$$

NDZ004>008-012>016-024-026-027-054-241300-
NORTHEAST NORTH DAKOTA

CITY           SKY/WX    TMP DP  RH WIND       PRES   REMARKS
GRAND FORKS    PTCLDY    62  61  96 S6        29.97R
GRND FRKS AFB  CLEAR     61  60  96 S7        29.97R
DEVILS LAKE    CLEAR     65  60  84 S12       29.95R
$$

NDZ022-023-025-028>030-036>039-047>053-241300-
SOUTHEAST NORTH DAKOTA

CITY           SKY/WX    TMP DP  RH WIND       PRES   REMARKS
FARGO          CLEAR     64  60  87 MISG        N/A
6HR MIN TEMP:  60; 6HR MAX TEMP:  64;

JAMESTOWN      CLOUDY    62  58  86 S10       29.96F
$$




USA.gov is the U.S. government's official web portal to all federal, state and local government web resources and services.